Skip Page Navigation
NASA JPL Caltech
NASA Logo - Jet Propulsion Laboratory + View the NASA Portal
+ Center for Near-Earth Object Studies
JPL Home Earth Solar System Stars & Galaxies Technology
JPL Solar System Dynamics
BODIES ORBITS EPHEMERIDES TOOLS PHYSICAL DATA DISCOVERY FAQ SITE MAP
IMPORTANT: The SSD Announcement email list is now available. Major changes are coming in the near future, including possible hostname and/or URL changes. To be notified of such changes, subscribe to this email list.

Please visit this page for more details.


JPL Small-Body Database Browser
Search: [ help ]  
52027 (2002 OB24)
Classification: Main-belt Asteroid          SPK-ID: 2052027
Ephemeris | Orbit Diagram | Orbital Elements | Mission Design | Physical Parameters | Discovery Circumstances | Close-Approach Data ]

[ show orbit diagram ]
Orbital Elements at Epoch 2458600.5 (2019-Apr-27.0) TDB
Reference: JPL 26 (heliocentric ecliptic J2000)
 Element Value Uncertainty (1-sigma)   Units 
e .2878725359539247 5.3723e-08  
a 3.123350590126857 2.4349e-08 au
q 2.224223735073851 1.671e-07 au
i 20.63669122248205 6.1719e-06 deg
node 343.8869295030401 1.4645e-05 deg
peri .3332916683748103 1.6868e-05 deg
M 22.33144329979598 1.0949e-05 deg
tp 2458475.432686120130
(2018-Dec-22.93268612)
6.0777e-05 TDB
period 2016.181058801718
5.52
2.3577e-05
6.455e-08
d
yr
n .1785553923485224 2.088e-09 deg/d
Q 4.022477445179862 3.1358e-08 au
  Orbit Determination Parameters
   # obs. used (total)      980  
   data-arc span      18347 days (50.23 yr)  
   first obs. used      1969-09-13  
   last obs. used      2019-12-07  
   planetary ephem.      DE431  
   SB-pert. ephem.      SB431-N16  
   condition code      0  
   norm. resid. RMS      .49749  
   source      ORB  
   producer      Otto Matic  
   solution date      2019-Dec-14 04:56:09  

Additional Information
 Earth MOID = 1.21588 au 
 Jupiter MOID = 1.39714 au 
 T_jup = 3.055 
[ show covariance matrix ]

Ephemeris | Orbit Diagram | Orbital Elements | Mission Design | Physical Parameters | Discovery Circumstances | Close-Approach Data ]

Physical Parameter Table
Parameter Symbol Value Units Sigma Reference Notes
absolute magnitude H 13.5   n/a MPO365857  

52027 (2002 OB24)          Discovered 2002-Jul-28 by NEAT at Haleakala
Reference: 20021120/Numbers.arcLast Updated: 2004-04-19

[ show close-approach data ]
Alternate Designations
 2002 OB24 = 1969 RL2 = 1991 RN29 = 2000 EW155 
Ephemeris | Orbit Diagram | Orbital Elements | Mission Design | Physical Parameters | Discovery Circumstances | Close-Approach Data ]
ABOUT SSD CREDITS/AWARDS PRIVACY/COPYRIGHT GLOSSARY LINKS
FirstGov 2020-Jan-22 12:15 UT
(server date/time)  
NASA Home Page
Site Manager:   Ryan S. Park
Webmaster  Alan B. Chamberlin